sat.trackr.live / text

‹ back to catalog

STARLINK-31721

NORAD 59536 · 2024-074C

PAYLOAD ACTIVE UNKNOWN

§ Identity

Operator
Country
US
Launch date
2024-04-18
Launch site
AFETR
Launch vehicle
Mass (kg)
RCS (m²)

Purposes: comms

External: N2YO · Heavens-Above · Gunter

§ Orbital elements

Epoch: 2026-05-24T17:02:12.863904Z

Period
94.26 min
Inclination
43.0014°
Eccentricity
0.0002100
Mean motion
15.27616421 rev/d
Perigee alt
481.5 km
Apogee alt
484.4 km
Semi-major
6,861.1 km
B*
1.9984e-4
RAAN
273.9444°
Arg perigee
244.8194°
Mean anomaly
115.2440°
Rev number
11,764

§ Raw data

STARLINK-317211 59536U 24074C   26144.70987111  .00005247  00000+0  19984-3 0  99972 59536  43.0014 273.9444 0002100 244.8194 115.2440 15.27616421117641

JSON: /api/v1/satellites/59536 · /tle

For live sub-satellite position, see the globe view (requires WebGL).

§ Visibility from observer

Set your observer location to see the next 7 days of passes ≥ 10°. The values pass through the URL so the page stays shareable.

No JS? Fill the form by hand. The geolocation button needs JavaScript.